D8954 Weather Reports


time (UTC)temp
C
wind
direction
speed
KPH
gust
KPH
rain 1hr
cm
rain 24hr
cm
rain mn
cm
humidity
%
barometer
mb
20260507075504 8 315 4.8 4.8 0.00 1.40 0.97 89 1012.7
20260507075005 8 353 3.2 4.8 0.03 1.40 0.97 89 1012.6
20260507074505 8 300 4.8 4.8 0.03 1.40 0.97 90 1012.4
20260507074005 8 342 1.6 4.8 0.03 1.40 0.97 90 1012.4
20260507073505 8 333 1.6 11.3 0.03 1.40 0.97 90 1012.4
20260507073005 8 263 1.6 4.8 0.05 1.40 0.97 90 1012.3
20260507072505 8 330 3.2 9.7 0.05 1.40 0.97 90 1012.3
20260507072004 8 340 1.6 4.8 0.05 1.40 0.97 90 1012.2
20260507071504 8 279 0.0 4.8 0.05 1.40 0.97 90 1012.1
20260507071005 7 317 1.6 4.8 0.05 1.40 0.97 90 1012.1
20260507070009 7 313 3.2 11.3 0.10 1.40 0.97 90 1012.0
20260507065005 8 336 1.6 3.2 0.08 1.37 0.94 90 1011.9
20260507064505 8 265 1.6 4.8 0.10 1.37 0.94 90 1011.8
20260507064005 7 274 4.8 11.3 0.10 1.37 0.94 90 1011.9
20260507063504 7 340 1.6 9.7 0.10 1.37 0.94 90 1011.8
20260507063005 7 278 1.6 8.0 0.10 1.37 0.91 90 1011.8
20260507062504 7 321 3.2 4.8 0.10 1.37 0.91 90 1011.8
20260507062005 7 316 3.2 4.8 0.10 1.37 0.91 91 1011.8
20260507061505 7 24 3.2 4.8 0.08 1.35 0.89 90 1011.6
20260507061004 7 355 1.6 3.2 0.08 1.35 0.89 90 1011.6
20260507060504 7 313 1.6 3.2 0.05 1.32 0.89 91 1011.5
20260507055505 7 254 0.0 3.2 0.05 1.30 0.86 91 1011.3
20260507055004 7 254 3.2 4.8 0.05 1.30 0.86 91 1011.2
20260507054005 7 320 0.0 3.2 0.05 1.27 0.84 91 1011.2
20260507052505 7 321 1.6 4.8 0.05 1.27 0.81 90 1011.0
20260507052005 7 6 3.2 8.0 0.05 1.27 0.81 90 1011.0
20260507051504 7 336 3.2 11.3 0.05 1.27 0.81 90 1010.9
20260507051004 7 327 4.8 16.1 0.05 1.27 0.81 90 1010.8
20260507050504 7 346 3.2 4.8 0.05 1.27 0.81 90 1010.7
20260507050006 7 285 1.6 4.8 0.05 1.27 0.81 90 1010.5
20260507045505 7 316 1.6 4.8 0.05 1.24 0.79 90 1010.5
20260507045004 7 236 1.6 4.8 0.05 1.24 0.79 90 1010.5
20260507044505 7 290 0.0 1.6 0.05 1.24 0.79 90 1010.4
20260507044005 7 292 1.6 4.8 0.05 1.24 0.79 90 1010.4
20260507043509 7 265 1.6 4.8 0.05 1.22 0.79 90 1010.3
20260507042504 7 286 1.6 8.0 0.05 1.22 0.79 90 1010.1
20260507042005 7 6 1.6 4.8 0.05 1.22 0.79 90 1010.1
20260507041005 7 196 1.6 3.2 0.05 1.22 0.79 91 1010.0
20260507040504 7 281 1.6 9.7 0.05 1.19 0.76 91 1010.0
20260507040009 7 330 4.8 8.0 0.05 1.19 0.76 90 1010.0
20260507035504 7 337 4.8 9.7 0.05 1.19 0.76 91 1009.9
20260507035005 7 295 3.2 12.9 0.05 1.19 0.76 90 1009.8
20260507034505 7 228 1.6 4.8 0.05 1.19 0.76 91 1009.8
20260507034005 7 223 3.2 12.9 0.05 1.17 0.74 90 1009.7
20260507033505 7 299 3.2 8.0 0.05 1.17 0.74 90 1009.7
20260507033004 8 224 3.2 14.5 0.08 1.17 0.74 90 1009.6
20260507032504 8 300 3.2 8.0 0.10 1.17 0.74 90 1009.6
20260507032004 8 323 1.6 4.8 0.13 1.17 0.74 90 1009.6
20260507031504 8 316 1.6 9.7 0.15 1.17 0.74 90 1009.5
20260507030505 8 330 4.8 9.7 0.15 1.17 0.71 90 1009.4
20260507030005 8 336 4.8 9.7 0.15 1.17 0.71 90 1009.4
20260507025504 8 324 3.2 4.8 0.15 1.17 0.71 90 1009.3
20260507025005 8 277 3.2 4.8 0.15 1.14 0.71 90 1009.3
20260507024005 8 299 1.6 8.0 0.13 1.12 0.69 90 1009.4
20260507023505 8 248 1.6 4.8 0.13 1.12 0.69 90 1009.3
20260507023005 8 264 1.6 4.8 0.10 1.09 0.66 90 1009.3
20260507022504 8 339 3.2 4.8 0.08 1.09 0.64 90 1009.1
20260507022004 8 331 4.8 8.0 0.05 1.07 0.61 90 1009.1
20260507021504 8 278 1.6 4.8 0.05 1.04 0.61 90 1009.0
20260507021005 8 304 3.2 8.0 0.03 1.02 0.58 90 1009.0
20260507020005 8 254 3.2 4.8 0.00 0.99 0.56 90 1008.9
20260507015005 8 318 1.6 4.8 0.03 0.99 0.56 90 1008.9
20260507014504 8 263 3.2 9.7 0.03 0.99 0.56 90 1008.9
20260507014004 8 308 3.2 4.8 0.03 0.99 0.56 90 1008.9
20260507013505 8 247 0.0 3.2 0.03 0.99 0.56 90 1008.8
20260507012505 8 295 3.2 9.7 0.05 0.99 0.56 90 1008.7
20260507012005 8 0 4.8 8.0 0.05 0.99 0.56 90 1008.7
20260507011504 8 322 1.6 8.0 0.05 0.99 0.56 90 1008.6
20260507010505 8 351 6.4 12.9 0.08 0.99 0.56 90 1008.6
20260507010005 8 312 3.2 9.7 0.10 0.99 0.56 90 1008.7
20260507004005 8 262 3.2 8.0 0.10 0.99 0.53 90 1008.6
20260507003504 8 324 3.2 8.0 0.13 0.99 0.53 89 1008.6
20260507003005 8 257 0.0 4.8 0.13 0.99 0.53 90 1008.6
20260507002505 8 302 1.6 4.8 0.13 0.97 0.51 90 1008.6
20260507000505 8 335 4.8 12.9 0.13 0.91 0.48 90 1008.7
20260507000006 9 329 3.2 9.7 0.13 0.89 0.46 90 1008.7
20260506235004 9 313 3.2 9.7 0.15 0.89 0.43 90 1008.7
20260506234504 9 325 0.0 4.8 0.15 0.89 0.43 90 1008.6
20260506234004 9 327 3.2 4.8 0.18 0.89 0.43 90 1008.7
20260506233505 9 23 3.2 4.8 0.20 0.89 0.43 90 1008.6
20260506233005 9 294 1.6 8.0 0.23 0.89 0.43 90 1008.5
20260506232504 9 338 3.2 4.8 0.25 0.86 0.41 90 1008.6
20260506232005 9 314 3.2 4.8 0.28 0.84 0.38 90 1008.5
20260506231505 9 331 1.6 4.8 0.33 0.84 0.38 90 1008.5
20260506231005 9 337 3.2 8.0 0.33 0.81 0.36 90 1008.4
20260506230504 10 301 3.2 4.8 0.33 0.81 0.36 90 1008.3
20260506230005 10 330 4.8 9.7 0.33 0.79 0.33 90 1008.3
20260506224504 10 316 3.2 8.0 0.33 0.74 0.28 90 1008.2
20260506223005 10 284 3.2 9.7 0.30 0.66 0.18 89 1008.1
20260506221504 10 306 1.6 4.8 0.23 0.61 0.05 89 1007.9
20260506221004 10 277 3.2 9.7 0.23 0.61 0.05 89 1007.9
20260506220005 10 307 3.2 4.8 0.23 0.61 0.00 89 1007.8
20260506215504 10 5 3.2 8.0 0.20 0.61 0.61 89 1007.7
20260506215006 10 304 3.2 12.9 0.18 0.61 0.58 89 1007.7
20260506214505 10 343 1.6 8.0 0.18 0.64 0.56 89 1007.6
20260506214005 10 300 4.8 12.9 0.15 0.61 0.53 89 1007.7
20260506213004 11 299 3.2 4.8 0.13 0.58 0.51 89 1007.5
20260506212504 11 334 3.2 4.8 0.13 0.61 0.51 89 1007.5
20260506211504 11 309 3.2 4.8 0.10 0.58 0.48 89 1007.4
20260506211004 11 260 1.6 4.8 0.08 0.56 0.46 89 1007.3
20260506210504 11 252 0.0 3.2 0.05 0.51 0.43 89 1007.3
20260506210005 11 259 0.0 3.2 0.03 0.51 0.41 89 1007.2
20260506205504 11 259 1.6 3.2 0.03 0.51 0.41 89 1007.3
20260506205003 11 283 1.6 4.8 0.05 0.51 0.41 89 1007.3
20260506203504 11 229 1.6 3.2 0.05 0.48 0.38 89 1007.2
20260506203004 11 230 1.6 4.8 0.08 0.48 0.38 89 1007.1
20260506202504 11 228 0.0 3.2 0.08 0.48 0.38 89 1007.1
20260506202004 11 228 0.0 3.2 0.08 0.48 0.38 89 1007.1
20260506201004 11 228 0.0 1.6 0.08 0.48 0.38 89 1007.0
20260506200504 11 228 0.0 4.8 0.10 0.48 0.38 89 1007.0
20260506200005 11 211 1.6 3.2 0.13 0.48 0.38 89 1007.0
20260506195504 11 211 1.6 3.2 0.13 0.48 0.38 89 1006.9
20260506195004 11 210 1.6 3.2 0.13 0.46 0.36 88 1006.8
20260506194504 11 209 1.6 3.2 0.13 0.43 0.33 88 1006.8
20260506194004 11 210 0.0 3.2 0.15 0.43 0.33 88 1006.8
20260506193504 11 139 1.6 3.2 0.15 0.43 0.33 88 1006.7
20260506193004 11 224 1.6 4.8 0.13 0.41 0.30 88 1006.6
20260506192504 11 226 1.6 3.2 0.13 0.41 0.30 88 1006.6
20260506192004 11 227 1.6 4.8 0.13 0.41 0.30 88 1006.5
20260506191504 11 232 0.0 1.6 0.13 0.41 0.30 87 1006.4
20260506191004 11 233 1.6 4.8 0.13 0.41 0.30 87 1006.3
20260506190504 11 252 3.2 8.0 0.10 0.38 0.28 87 1006.3
20260506190006 11 231 3.2 8.0 0.08 0.36 0.25 86 1006.3
20260506185504 11 222 1.6 4.8 0.08 0.36 0.25 86 1006.3
20260506185004 12 258 0.0 3.2 0.05 0.33 0.23 85 1006.3
20260506184004 12 286 3.2 9.7 0.00 0.28 0.18 81 1006.1
20260506183504 12 212 1.6 4.8 0.00 0.28 0.18 79 1006.0
20260506183005 12 224 4.8 9.7 0.00 0.28 0.18 79 1005.9
20260506182504 13 211 8.0 11.3 0.00 0.28 0.18 78 1005.8
20260506182004 13 214 3.2 9.7 0.00 0.28 0.18 78 1005.9
20260506181504 13 219 4.8 11.3 0.00 0.28 0.18 77 1005.8
20260506180504 13 211 4.8 8.0 0.00 0.28 0.18 77 1005.7
20260506180006 13 203 4.8 12.9 0.00 0.28 0.18 77 1005.6
20260506175504 13 225 4.8 11.3 0.00 0.28 0.18 76 1005.6
20260506175005 13 205 4.8 14.5 0.00 0.28 0.18 76 1005.5
20260506174503 13 218 8.0 12.9 0.00 0.28 0.18 75 1005.4
20260506173504 13 218 8.0 12.9 0.00 0.28 0.18 75 1005.3
20260506173005 13 211 8.0 11.3 0.00 0.28 0.18 74 1005.3
20260506172504 14 200 8.0 11.3 0.00 0.28 0.18 75 1005.2
20260506172004 14 213 9.7 12.9 0.00 0.28 0.18 74 1005.2
20260506171503 14 216 8.0 12.9 0.00 0.30 0.18 74 1005.1
20260506171004 14 208 8.0 19.3 0.00 0.30 0.18 73 1005.1
20260506170504 15 215 9.7 19.3 0.00 0.30 0.18 72 1005.0
20260506170004 15 212 8.0 19.3 0.00 0.30 0.18 70 1004.9
20260506165504 15 199 3.2 8.0 0.00 0.30 0.18 70 1004.9
20260506165004 15 213 3.2 4.8 0.00 0.30 0.18 69 1004.8
20260506164003 15 213 3.2 8.0 0.00 0.30 0.18 69 1004.9
20260506163503 15 212 3.2 9.7 0.00 0.33 0.18 68 1005.0
20260506163004 15 227 4.8 9.7 0.00 0.33 0.18 69 1004.9
20260506162504 15 224 6.4 12.9 0.00 0.33 0.18 68 1005.0
20260506162004 15 223 6.4 12.9 0.00 0.36 0.18 68 1005.1
20260506161504 15 229 4.8 14.5 0.00 0.36 0.18 67 1005.1
20260506160504 15 208 6.4 9.7 0.00 0.38 0.18 66 1005.1
20260506160004 15 205 4.8 11.3 0.00 0.41 0.18 67 1005.2
20260506155004 16 220 6.4 16.1 0.00 0.43 0.18 65 1005.1
20260506154504 16 214 4.8 9.7 0.00 0.46 0.18 64 1005.1
20260506153004 16 226 4.8 9.7 0.00 0.51 0.18 64 1005.1
20260506152504 16 221 8.0 11.3 0.00 0.51 0.18 65 1005.0
20260506152004 16 226 6.4 16.1 0.00 0.53 0.18 64 1005.0
20260506151003 16 209 8.0 11.3 0.00 0.56 0.18 64 1005.0
20260506150504 16 221 8.0 14.5 0.00 0.58 0.18 64 1004.8
20260506150005 16 247 3.2 9.7 0.00 0.61 0.18 64 1004.8
20260506145503 16 273 1.6 9.7 0.00 0.64 0.18 63 1004.7
20260506144504 16 185 8.0 12.9 0.00 0.71 0.18 62 1004.7
20260506144004 16 253 6.4 14.5 0.00 0.71 0.18 60 1004.8
20260506143503 16 222 9.7 14.5 0.00 0.76 0.18 62 1004.7
20260506143004 17 226 8.0 14.5 0.00 0.79 0.18 61 1004.7
20260506142504 17 226 4.8 14.5 0.00 0.79 0.18 61 1004.7
20260506142004 17 214 1.6 9.7 0.00 0.79 0.18 64 1004.7
20260506141503 17 214 6.4 16.1 0.00 0.79 0.18 62 1004.7
20260506141004 17 182 4.8 14.5 0.00 0.79 0.18 60 1004.7
20260506140504 18 5 3.2 14.5 0.00 0.79 0.18 60 1004.6
20260506140004 17 206 8.0 11.3 0.00 0.79 0.18 61 1004.7
20260506135504 17 184 6.4 19.3 0.00 0.79 0.18 62 1004.7
20260506134505 17 204 8.0 12.9 0.00 0.79 0.18 62 1004.8
20260506133004 17 303 3.2 8.0 0.00 0.79 0.18 65 1004.9
20260506132504 17 214 8.0 12.9 0.00 0.79 0.18 64 1004.9
20260506132005 17 219 8.0 16.1 0.00 0.79 0.18 62 1005.0
20260506131504 17 255 6.4 16.1 0.00 0.79 0.18 63 1004.9
20260506131004 17 171 4.8 12.9 0.00 0.79 0.18 64 1004.8
20260506130503 17 205 4.8 11.3 0.00 0.79 0.18 64 1004.8
20260506125006 17 344 1.6 8.0 0.00 0.79 0.18 65 1004.8
20260506124506 17 233 4.8 11.3 0.00 0.79 0.18 62 1004.8
20260506124005 17 357 3.2 19.3 0.00 0.79 0.18 64 1004.7
20260506123506 17 310 3.2 9.7 0.00 0.79 0.18 63 1004.7
20260506122506 17 209 8.0 16.1 0.00 0.79 0.18 65 1004.8
20260506122006 16 198 9.7 14.5 0.00 0.79 0.18 66 1004.9
20260506121506 16 233 8.0 19.3 0.00 0.79 0.18 65 1004.9
20260506121006 17 207 4.8 14.5 0.00 0.79 0.18 65 1004.9
20260506120506 17 210 4.8 12.9 0.00 0.79 0.18 64 1005.0
20260506115006 17 327 3.2 14.5 0.00 0.79 0.18 68 1005.0
20260506114505 17 187 4.8 14.5 0.00 0.79 0.18 64 1005.0
20260506114006 17 194 1.6 9.7 0.00 0.79 0.18 67 1005.0
20260506113505 16 329 9.7 19.3 0.00 0.79 0.18 67 1005.0
20260506113005 16 322 4.8 19.3 0.00 0.79 0.18 68 1005.1
20260506112505 16 74 4.8 14.5 0.00 0.79 0.18 68 1005.0
20260506112005 16 198 4.8 16.1 0.00 0.79 0.18 69 1005.1
20260506111506 16 355 3.2 8.0 0.00 0.79 0.18 68 1005.2
20260506111006 17 230 8.0 22.5 0.00 0.79 0.18 65 1005.2
20260506110006 16 201 9.7 19.3 0.00 0.79 0.18 68 1005.3
20260506105506 16 217 9.7 16.1 0.00 0.79 0.18 69 1005.3
20260506105006 16 201 4.8 9.7 0.00 0.79 0.18 69 1005.2
20260506104006 16 200 8.0 19.3 0.00 0.79 0.18 68 1005.2
20260506103506 17 220 4.8 9.7 0.00 0.79 0.18 67 1005.3
20260506103006 16 202 8.0 14.5 0.00 0.79 0.18 68 1005.2
20260506102506 16 213 4.8 16.1 0.00 0.79 0.18 68 1005.2
20260506102005 15 225 3.2 8.0 0.00 0.79 0.18 68 1005.3
20260506101506 16 218 8.0 16.1 0.00 0.79 0.18 70 1005.4
20260506101006 16 228 6.4 16.1 0.00 0.79 0.18 69 1005.4
20260506100505 16 197 9.7 14.5 0.00 0.79 0.18 69 1005.2
20260506100006 16 204 11.3 20.9 0.00 0.79 0.18 66 1005.2
20260506095506 16 238 8.0 16.1 0.00 0.79 0.18 70 1005.3
20260506095005 16 214 11.3 16.1 0.00 0.79 0.18 71 1005.3
20260506094506 16 200 9.7 19.3 0.00 0.79 0.18 71 1005.3
20260506094006 15 216 3.2 12.9 0.00 0.79 0.18 71 1005.4
20260506093506 15 217 1.6 4.8 0.00 0.79 0.18 75 1005.4
20260506093005 15 235 3.2 11.3 0.00 0.79 0.18 72 1005.5
20260506092506 15 221 4.8 9.7 0.00 0.79 0.18 74 1005.4
20260506092005 15 193 1.6 9.7 0.00 0.79 0.18 75 1005.5
20260506091505 15 220 4.8 11.3 0.00 0.79 0.18 73 1005.5
20260506091005 15 251 9.7 16.1 0.00 0.79 0.18 73 1005.5
20260506090506 15 219 4.8 19.3 0.00 0.79 0.18 73 1005.5
20260506090007 15 233 8.0 16.1 0.00 0.79 0.18 71 1005.5
20260506085506 15 222 8.0 22.5 0.00 0.79 0.18 72 1005.5
20260506085005 15 225 6.4 14.5 0.00 0.79 0.18 73 1005.5
20260506084505 15 207 8.0 12.9 0.00 0.79 0.18 74 1005.4
20260506084006 15 229 4.8 12.9 0.00 0.79 0.18 78 1005.5
20260506083509 15 204 4.8 14.5 0.00 0.79 0.18 77 1005.4
20260506083005 14 280 3.2 8.0 0.00 0.79 0.18 78 1005.3
20260506082506 15 254 6.4 12.9 0.00 0.79 0.18 78 1005.2
20260506082005 15 197 1.6 4.8 0.00 0.79 0.18 78 1005.1
20260506081506 15 336 3.2 11.3 0.00 0.79 0.18 75 1005.1
20260506081006 15 244 4.8 9.7 0.00 0.79 0.18 78 1005.0
20260506080506 15 355 1.6 12.9 0.00 0.79 0.18 77 1005.0